Location: Stockholm
(59.3333°N, 18.0500°E)
Time: 01:35:33
(UTC+02:00)

ISS - Visible Passes

Search period start: 23 May 2018 00:00
Search period end: 02 June 2018 00:00
Orbit: 402 x 407 km, 51.6° (Epoch: 23 May)

Date Brightness Start Highest point End Pass type
(mag) Time Alt. Az. Time Alt. Az. Time Alt. Az.
23 May -2.6 00:39:22 10° SW 00:41:56 21° S 00:44:30 10° SE visible
23 May -2.0 02:15:55 10° SW 02:17:38 14° SSW 02:19:20 10° S visible
23 May -2.5 23:47:23 10° SW 23:49:58 21° S 23:52:32 10° SE visible
24 May -2.2 01:23:33 10° WSW 01:25:43 17° SSW 01:27:53 10° SSE visible
24 May -2.4 22:55:29 10° SW 22:58:00 20° S 23:00:29 10° ESE visible
25 May -2.4 00:31:22 10° WSW 00:33:46 19° SSW 00:35:45 12° SSE visible
25 May -2.5 23:39:15 10° WSW 23:41:48 21° S 23:44:20 10° SE visible
26 May -1.8 01:16:01 10° SW 01:17:17 12° SSW 01:17:17 12° SSW visible
26 May -2.4 22:47:13 10° SW 22:49:48 21° S 22:52:23 10° SE visible
27 May -2.0 00:23:30 10° WSW 00:25:32 15° SSW 00:26:28 14° S visible
27 May -2.2 23:31:12 10° WSW 23:33:33 18° SSW 23:35:45 11° SSE visible
29 May -1.7 00:16:05 10° SW 00:17:11 11° SSW 00:17:43 11° SSW visible
29 May -1.8 23:23:21 10° WSW 23:25:14 14° SSW 23:27:05 10° SSE visible
31 May -1.4 23:16:22 10° SW 23:16:47 10° SSW 23:17:11 10° SSW visible
